EC5ZZ-13 Weather Reports


time (UTC)temp
C
wind
direction
speed
KPH
gust
KPH
rain 1hr
cm
rain 24hr
cm
rain mn
cm
humidity
%
barometer
mb
20260502203106 17 360 1.6 3.2 0.00 0.00 0.00 86 1017.1
20260502202053 17 325 3.2 6.4 0.00 0.00 0.00 86 1016.8
20260502201038 17 6 1.6 4.8 0.00 0.00 0.00 85 1016.9
20260502200027 17 346 1.6 3.2 0.00 0.00 0.00 85 1016.9
20260502195137 17 21 3.2 6.4 0.00 0.00 0.00 85 1016.6
20260502194105 17 319 3.2 6.4 0.00 0.00 0.00 84 1016.5
20260502193054 17 21 1.6 3.2 0.00 0.00 0.00 83 1016.7
20260502192042 17 10 1.6 6.4 0.00 0.00 0.00 83 1016.6
20260502191027 18 338 3.2 8.0 0.00 0.00 0.00 82 1016.4
20260502190112 18 15 3.2 6.4 0.00 0.00 0.00 81 1016.4
20260502185103 18 8 3.2 6.4 0.00 0.00 0.00 81 1016.2
20260502184052 18 352 4.8 9.7 0.00 0.00 0.00 80 1016.4
20260502183040 18 260 3.2 8.0 0.00 0.00 0.00 80 1016.6
20260502182030 18 281 3.2 4.8 0.00 0.00 0.00 79 1016.7
20260502181116 18 298 3.2 6.4 0.00 0.00 0.00 79 1016.8
20260502180106 18 322 3.2 6.4 0.00 0.00 0.00 78 1017.0
20260502164036 20 15 3.2 6.4 0.00 0.00 0.00 73 1017.2
20260502163024 20 317 3.2 6.4 0.00 0.00 0.00 72 1017.2
20260502162115 20 224 3.2 6.4 0.00 0.00 0.00 73 1017.3
20260502161103 20 260 4.8 11.3 0.00 0.00 0.00 72 1017.3
20260502152111 22 263 4.8 12.9 0.00 0.00 0.00 64 1017.2
20260502151101 22 296 4.8 9.7 0.00 0.00 0.00 68 1017.5
20260502123110 22 259 4.8 9.7 0.00 0.00 0.00 64 1019.0
20260502122100 22 17 4.8 12.9 0.00 0.00 0.00 68 1019.0
20260502121110 21 254 6.4 12.9 0.00 0.00 0.00 71 1019.3
20260502115024 22 327 4.8 8.0 0.00 0.00 0.00 69 1019.3
20260502114114 22 349 1.6 6.4 0.00 0.00 0.00 70 1019.4
20260502113102 21 358 3.2 8.0 0.00 0.00 0.00 70 1019.7
20260502112053 22 346 4.8 11.3 0.00 0.00 0.00 70 1019.6
20260502111044 22 30 6.4 12.9 0.00 0.00 0.00 70 1019.5
20260502110032 22 265 4.8 6.4 0.00 0.00 0.00 62 1019.5
20260502105041 22 344 4.8 8.0 0.00 0.00 0.00 63 1019.7
20260502104112 22 141 3.2 9.7 0.00 0.00 0.00 65 1019.8
20260502103122 22 141 3.2 8.0 0.00 0.00 0.00 61 1019.9
20260502102049 22 33 1.6 4.8 0.00 0.00 0.00 63 1019.9
20260502101039 22 353 3.2 4.8 0.00 0.00 0.00 62 1019.9
20260502091037 22 280 3.2 4.8 0.00 0.00 0.00 67 1020.1
20260502071023 21 30 0.0 3.2 0.00 0.00 0.00 86 1020.4
20260502070112 20 0.0 1.6 0.00 0.00 0.00 89 1020.2
20260502065058 18 315 0.0 3.2 0.00 0.00 0.00 89 1020.1
20260502064043 17 342 1.6 3.2 0.00 0.00 0.00 88 1020.4
20260502063031 17 332 1.6 3.2 0.00 0.00 0.00 88 1020.5
20260502062019 17 327 1.6 3.2 0.00 0.00 0.00 90 1020.6
20260502061104 17 315 0.0 3.2 0.00 0.00 0.00 91 1020.5
20260502060053 17 315 0.0 3.2 0.00 0.00 0.00 91 1020.2
20260502055038 17 0.0 0.0 0.00 0.00 0.00 91 1020.2
20260502054029 17 315 0.0 3.2 0.00 0.00 0.00 91 1020.1
20260502053115 17 0.0 1.6 0.00 0.00 0.00 91 1020.0
20260502052103 17 324 1.6 3.2 0.00 0.00 0.00 90 1020.1
20260502051052 17 333 1.6 4.8 0.00 0.00 0.00 90 1020.0
20260502050037 17 0.0 1.6 0.00 0.00 0.00 90 1020.0
20260502045022 17 0 0.0 3.2 0.00 0.00 0.00 90 1020.1
20260502044111 17 0.0 1.6 0.00 0.03 0.00 90 1020.1
20260502043059 17 293 0.0 3.2 0.00 0.03 0.00 90 1020.2
20260502042046 17 0.0 1.6 0.00 0.03 0.00 91 1020.0
20260502041034 17 0 0.0 3.2 0.00 0.03 0.00 91 1020.1
20260502040022 17 0.0 1.6 0.00 0.03 0.00 91 1020.2
20260502035109 17 0.0 0.0 0.00 0.05 0.00 91 1020.4
20260502034057 17 0.0 0.0 0.00 0.05 0.00 91 1020.4
20260502033109 17 0.0 0.0 0.00 0.05 0.00 91 1020.5
20260502032036 17 0.0 0.0 0.00 0.05 0.00 91 1020.4
20260502031025 17 0.0 0.0 0.00 0.05 0.00 91 1020.5
20260502030115 17 0.0 1.6 0.00 0.05 0.00 91 1020.4
20260502025121 17 45 0.0 3.2 0.00 0.05 0.00 91 1020.4
20260502024044 17 45 0.0 3.2 0.00 0.05 0.00 91 1020.3
20260502023033 17 15 0.0 3.2 0.00 0.05 0.00 92 1020.4
20260502022022 17 45 0.0 3.2 0.00 0.05 0.00 92 1020.4
20260502021111 17 0.0 1.6 0.00 0.05 0.00 92 1020.5
20260502015051 17 45 0.0 3.2 0.00 0.05 0.00 92 1020.6
20260502014059 17 354 1.6 3.2 0.00 0.05 0.00 92 1020.5
20260502013028 17 30 0.0 3.2 0.00 0.05 0.00 92 1020.7
20260502012118 17 0.0 1.6 0.00 0.05 0.00 92 1020.8
20260502011103 17 0.0 1.6 0.00 0.05 0.00 92 1020.9
20260502010153 17 90 0.0 3.2 0.00 0.05 0.00 92 1021.0
20260502005041 17 0.0 1.6 0.00 0.05 0.00 92 1021.2
20260502004031 17 0.0 0.0 0.00 0.05 0.00 92 1021.2
20260502003041 17 0.0 0.0 0.00 0.05 0.00 92 1021.1
20260502002110 17 45 0.0 3.2 0.00 0.05 0.00 92 1021.2
20260502001057 17 90 0.0 3.2 0.00 0.05 0.00 91 1021.6
20260502000047 17 90 0.0 3.2 0.00 0.05 0.00 90 1021.7
20260501235036 17 45 0.0 3.2 0.00 0.05 0.00 90 1021.8
20260501234025 17 345 0.0 3.2 0.00 0.05 0.00 90 1022.0
20260501233115 17 359 1.6 3.2 0.00 0.05 0.00 90 1022.0
20260501232104 17 315 0.0 3.2 0.00 0.05 0.00 90 1022.1
20260501231054 17 18 1.6 3.2 0.00 0.05 0.00 89 1022.0
20260501230043 17 45 1.6 3.2 0.00 0.05 0.00 89 1021.8
20260501225031 17 360 0.0 3.2 0.00 0.05 0.00 89 1021.9
20260501224020 17 354 1.6 3.2 0.00 0.05 0.00 88 1021.9
20260501223108 17 7 1.6 3.2 0.00 0.05 0.00 88 1021.9
20260501222052 17 0 1.6 3.2 0.00 0.05 0.00 88 1021.9
20260501221037 17 358 1.6 4.8 0.00 0.05 0.00 88 1021.9
20260501220117 17 310 1.6 3.2 0.00 0.05 0.00 87 1022.1
20260501215102 17 39 1.6 3.2 0.00 0.05 0.05 87 1022.2
20260501214047 17 260 0.0 4.8 0.00 0.05 0.05 87 1022.2
20260501213036 17 24 0.0 3.2 0.00 0.05 0.05 86 1022.2
20260501212141 17 19 1.6 6.4 0.00 0.05 0.05 86 1022.2
20260501211106 17 331 3.2 4.8 0.00 0.05 0.05 85 1022.2
20260501210055 17 339 1.6 4.8 0.00 0.05 0.05 85 1022.3
20260501205103 17 325 1.6 3.2 0.00 0.05 0.05 85 1022.3
20260501204033 17 346 1.6 3.2 0.00 0.05 0.05 84 1022.3